This demonstration page uses our WeatherBlox Daily Observations layout. Learn more.

Left ArrowRight Arrow

Hourly Observations for January 14, 2015

Temp ( °F °C ) Dew Point ( °F °C ) Humidity (%) Winds ( mph kmh ) Pressure ( in mb ) Visibility ( mi km ) Precip ( " mm )
12:53 am 00:53 Cloudy with Mist and Fog 40 4.4 38 3.3 93 93 ENE 5 7 30.28 1026 5 8 0.00 0.00
1:42 am 01:42 Cloudy 40 4.4 37 2.8 89 89 NE 7 11 30.30 1026 10 16 0.00 0.00
1:53 am 01:53 Cloudy 40 4.4 37 2.8 89 89 NE 6 9 30.28 1025 10 16 0.00 0.00
2:53 am 02:53 Cloudy 40 4.4 37 2.8 89 89 E 5 7 30.28 1025 10 16 0.00 0.00
3:20 am 03:20 Cloudy 39 4 37 3 93 93 ENE 3 6 30.30 1026 10 16 0.00 0.00
3:38 am 03:38 Cloudy 39 4 37 3 93 93 Calm 30.30 1026 10 16 0.00 0.00
3:53 am 03:53 Cloudy with Mist and Fog 40 4.4 37 2.8 89 89 Calm 30.27 1025 6 10 0.00 0.00
4:06 am 04:06 Cloudy 39 4 37 3 93 93 NNE 3 6 30.30 1026 8 13 0.00 0.00
4:26 am 04:26 Cloudy 39 4 37 3 93 93 NNE 5 7 30.30 1026 7 11 0.00 0.00
4:53 am 04:53 Cloudy 39 3.9 37 2.8 93 93 NE 3 6 30.26 1025 7 11 0.00 0.00
5:53 am 05:53 Cloudy 40 4.4 36 2.2 86 86 E 6 9 30.26 1025 10 16 0.00 0.00
6:53 am 06:53 Cloudy 39 3.9 36 2.2 89 89 NNE 5 7 30.27 1025 10 16 0.00 0.00
7:34 am 07:34 Cloudy 39 4 36 2 87 87 NE 3 6 30.30 1026 10 16 0.00 0.00
7:53 am 07:53 Cloudy 39 3.9 36 2.2 89 89 NE 6 9 30.28 1025 7 11 0.00 0.00
8:53 am 08:53 Cloudy with Mist and Fog 39 3.9 36 2.2 89 89 NNE 3 6 30.29 1026 4 6 0.00 0.00
9:53 am 09:53 Cloudy with Mist and Fog 40 4.4 37 2.8 89 89 ENE 5 7 30.30 1026 4 6 0.00 0.00
10:53 am 10:53 Cloudy with Mist and Fog 41 5 37 2.8 86 86 NNE 3 6 30.30 1026 6 10 0.00 0.00
11:53 am 11:53 Cloudy 42 5.6 37 2.8 82 82 Calm 30.28 1025 8 13 0.00 0.00
12:25 pm 12:25 Cloudy 42 5.6 37 2.8 82 82 Calm 30.27 1025 9 14 0.00 0.00
12:53 pm 12:53 Cloudy 42 5.6 36 2.2 79 79 WNW 6 9 30.26 1025 10 16 0.00 0.00
1:26 pm 13:26 Cloudy 43 6 37 3 81 81 NW 3 6 30.24 1024 10 16 0.00 0.00
1:53 pm 13:53 Cloudy 43 6.1 37 2.8 80 80 WNW 6 9 30.23 1024 10 16 0.00 0.00
2:53 pm 14:53 Cloudy 45 7.2 37 2.8 74 74 N 7 11 30.20 1023 10 16 0.00 0.00
3:53 pm 15:53 Cloudy 45 7.2 36 2.2 71 71 NNW 7 11 30.20 1023 10 16 0.00 0.00
4:53 pm 16:53 Cloudy 45 7.2 36 2.2 71 71 NW 3 6 30.22 1023 10 16 0.00 0.00
5:53 pm 17:53 Cloudy 44 6.7 35 1.7 71 71 N 5 7 30.22 1023 10 16 0.00 0.00
6:53 pm 18:53 Cloudy 43 6.1 35 1.7 74 74 NW 6 9 30.22 1023 10 16 0.00 0.00
7:53 pm 19:53 Mostly Cloudy 41 5 34 1.1 76 76 Calm 30.22 1023 10 16 0.00 0.00
8:53 pm 20:53 Mostly Cloudy 37 2.8 33 0.6 86 86 Calm 30.22 1023 9 14 0.00 0.00
9:00 pm 21:00 Clear 37 3 34 1 87 87 Calm 30.24 1024 9 14 0.00 0.00
9:53 pm 21:53 Clear 36 2.2 33 0.6 89 89 Calm 30.21 1023 9 14 0.00 0.00
10:51 pm 22:51 Clear with Mist and Fog 34 1 32 0 93 93 Calm 30.24 1024 2 3 0.00 0.00
10:53 pm 22:53 Clear with Mist and Fog 34 1.1 32 0 92 92 Calm 30.21 1023 2 2 0.00 0.00
11:07 pm 23:07 Clear with Mist and Fog 33 0.6 31 -0.6 92 92 Calm 30.24 1024 3 5 0.00 0.00
11:53 pm 23:53 Clear 35 1.7 32 0 89 89 SSW 5 7 30.22 1023 8 13 0.00 0.00

Powered by AerisWeather